MEXSAT 3

Last updated on Tue Jul 01 2025 00:02:46 GMT+0000 (Coordinated Universal Time)

1 39035U 12075B 25181.47374541 -.00000026 00000+0 00000+0 0 9994 2 39035 0.0168 49.5664 0001912 34.7873 250.1825 1.00269269 3524
UTC large
Height (km)
Speed (km/s)
/
Latitude / Longitude
Inclination (degrees)
Orbital Period (minutes)
Azimuth
Elevation
Range (km)
Doppler Factor

Next 0 passes for location: London (51.5072 / 0.1276)

Sorry there are no passes over London.